User: anonymous   Login
Location: Newark
(41.0400°S, 62.7845°W)
Time: 08:29:09
(UTC+00:00)
Language:

AO-109 - Orbit

View from above orbital plane
View from above orbital plane
View from above satellite
View from above satellite

Ground track
Ground track

The orbit data is extracted from the following two-line orbital elements,

1 47311U 21002C   22028.79333741  .00004606  00000-0  20461-3 0  9994
2 47311  60.6848 166.9685 0025659 165.4100 194.7733 15.22936947 57177
Epoch (UTC): 28 January 2022 19:02:24
Eccentricity: 0.0025659
inclination: 60.6848°
perigee height: 479 km
apogee height: 514 km
right ascension of ascending node: 166.9685°
argument of perigee: 165.4100°
revolutions per day: 15.22936947
mean anomaly at epoch: 194.7733°
orbit number at epoch: 5717

The dashed part of the orbit path shows where the satellite is in the earth's shadow,  

DLR